User: anonymous   Login
Location: Dogpatch
(64.8956°N, 147.8064°W)
Time: 08:13:50
(UTC+00:00)
Language:

N. Korean satellite - Orbit

View from above orbital plane
View from above orbital plane
View from above satellite
View from above satellite

Ground track
Ground track

The orbit data is extracted from the following two-line orbital elements,

1 39026U 12072A   19261.74527585  .00000957  00000-0  36920-4 0  9999
2 39026  97.2141 261.9331 0039245 132.1931 228.2652 15.27988283375650
Epoch (UTC): 18 September 2019 17:53:11
Eccentricity: 0.0039245
inclination: 97.2141°
perigee height: 455 km
apogee height: 509 km
right ascension of ascending node: 261.9331°
argument of perigee: 132.1931°
revolutions per day: 15.27988283
mean anomaly at epoch: 228.2652°
orbit number at epoch: 37565

The dashed part of the orbit path shows where the satellite is in the earth's shadow,  

DLR